RSC6LC GCLP-GCFV

Flight info

Callsign RSC6LC
Flight time 0h 27m
Altitude 9000
Route KOPUD
Aircraft AT76/M-SDFGIRY/S

Departure

Time 2026-04-28 16:38
Airport Gran Canaria Airport (GCLP)

Arrival

Time 2026-04-28 17:06
Airport Fuerteventura Airport (GCFV)
Time Latitude Longitude Altitude Speed Heading
2026-04-28 15:58 27.93807 -15.38673 78 ft 0 kts 291°
2026-04-28 16:22 27.93809 -15.38676 79 ft 4 kts 293°
2026-04-28 16:23 27.93810 -15.38680 73 ft 0 kts 295°
2026-04-28 16:29 27.93827 -15.38734 82 ft 0 kts 271°
2026-04-28 16:30 27.93817 -15.38738 80 ft 6 kts 202°
2026-04-28 16:30 27.93730 -15.38777 82 ft 20 kts 201°
2026-04-28 16:30 27.93600 -15.38835 83 ft 19 kts 202°
2026-04-28 16:30 27.93488 -15.38877 79 ft 16 kts 196°
2026-04-28 16:31 27.93393 -15.38919 77 ft 14 kts 201°
2026-04-28 16:31 27.93272 -15.38974 76 ft 24 kts 200°
2026-04-28 16:31 27.93152 -15.39024 78 ft 14 kts 201°
2026-04-28 16:31 27.93029 -15.39078 71 ft 24 kts 199°
2026-04-28 16:32 27.92888 -15.39125 82 ft 13 kts 157°
2026-04-28 16:32 27.92759 -15.39048 83 ft 16 kts 201°
2026-04-28 16:32 27.92628 -15.39106 88 ft 24 kts 201°
2026-04-28 16:33 27.92457 -15.39181 92 ft 28 kts 202°
2026-04-28 16:33 27.92339 -15.39233 95 ft 23 kts 201°
2026-04-28 16:33 27.92134 -15.39323 94 ft 29 kts 200°
2026-04-28 16:33 27.91956 -15.39397 91 ft 19 kts 182°
2026-04-28 16:34 27.91907 -15.39355 86 ft 0 kts 112°
2026-04-28 16:34 27.91901 -15.39333 85 ft 10 kts 102°
2026-04-28 16:34 27.91920 -15.39261 85 ft 11 kts 64°
2026-04-28 16:34 27.91955 -15.39205 83 ft 4 kts 21°
2026-04-28 16:35 27.91956 -15.39205 83 ft 0 kts 21°
2026-04-28 16:37 27.91963 -15.39202 82 ft 10 kts 21°
2026-04-28 16:38 27.92907 -15.38783 60 ft 129 kts 20°
2026-04-28 16:38 27.93838 -15.38371 268 ft 150 kts 21°
2026-04-28 16:38 27.94822 -15.37960 730 ft 159 kts 18°
2026-04-28 16:38 27.95908 -15.37523 1135 ft 171 kts 20°
2026-04-28 16:39 27.97041 -15.37028 1605 ft 177 kts 21°
2026-04-28 16:39 27.98200 -15.36518 2107 ft 180 kts 21°
2026-04-28 16:39 27.99376 -15.36004 2625 ft 182 kts 20°
2026-04-28 16:39 28.00563 -15.35490 3146 ft 183 kts 20°
2026-04-28 16:40 28.01759 -15.34974 3673 ft 184 kts 20°
2026-04-28 16:40 28.02942 -15.34462 4193 ft 185 kts 20°
2026-04-28 16:40 28.04133 -15.33906 4718 ft 186 kts 23°
2026-04-28 16:40 28.05320 -15.33321 5243 ft 187 kts 23°
2026-04-28 16:41 28.06513 -15.32734 5767 ft 187 kts 23°
2026-04-28 16:41 28.07711 -15.32145 6292 ft 188 kts 23°
2026-04-28 16:41 28.08914 -15.31553 6815 ft 189 kts 23°
2026-04-28 16:41 28.10121 -15.30958 7336 ft 190 kts 23°
2026-04-28 16:42 28.11228 -15.30179 7815 ft 191 kts 51°
2026-04-28 16:42 28.11745 -15.28801 8303 ft 193 kts 73°
2026-04-28 16:42 28.12093 -15.27306 8650 ft 202 kts 78°
2026-04-28 16:42 28.12374 -15.25699 8789 ft 219 kts 81°
2026-04-28 16:43 28.12498 -15.23933 8847 ft 227 kts 90°
2026-04-28 16:43 28.12401 -15.22155 8872 ft 226 kts 97°
2026-04-28 16:43 28.12116 -15.20404 8885 ft 227 kts 103°
2026-04-28 16:43 28.11729 -15.18663 8889 ft 227 kts 105°
2026-04-28 16:44 28.11322 -15.16936 8926 ft 226 kts 105°
2026-04-28 16:44 28.10927 -15.15215 8971 ft 226 kts 105°
2026-04-28 16:44 28.10543 -15.13487 8982 ft 226 kts 104°
2026-04-28 16:44 28.10167 -15.11757 8991 ft 227 kts 104°
2026-04-28 16:45 28.09917 -15.10023 8991 ft 226 kts 91°
2026-04-28 16:45 28.10027 -15.08235 8988 ft 231 kts 84°
2026-04-28 16:45 28.10228 -15.06398 8996 ft 238 kts 83°
2026-04-28 16:45 28.10423 -15.04514 9000 ft 244 kts 84°
2026-04-28 16:46 28.10578 -15.02587 9002 ft 248 kts 86°
2026-04-28 16:46 28.10705 -15.00626 9003 ft 252 kts 86°
2026-04-28 16:46 28.10837 -14.98635 9002 ft 254 kts 86°
2026-04-28 16:46 28.10972 -14.96634 9002 ft 255 kts 86°
2026-04-28 16:47 28.11107 -14.94647 9000 ft 251 kts 86°
2026-04-28 16:47 28.11240 -14.92682 9000 ft 249 kts 86°
2026-04-28 16:47 28.11371 -14.90736 9000 ft 247 kts 86°
2026-04-28 16:47 28.11499 -14.88830 9000 ft 245 kts 86°
2026-04-28 16:48 28.11627 -14.86910 9000 ft 244 kts 86°
2026-04-28 16:48 28.11755 -14.84990 9000 ft 248 kts 86°
2026-04-28 16:48 28.11887 -14.83012 9002 ft 256 kts 86°
2026-04-28 16:48 28.12023 -14.80975 9003 ft 262 kts 86°
2026-04-28 16:49 28.12162 -14.78901 9002 ft 266 kts 86°
2026-04-28 16:49 28.12303 -14.76797 9002 ft 269 kts 86°
2026-04-28 16:49 28.12443 -14.74672 9001 ft 272 kts 86°
2026-04-28 16:49 28.12584 -14.72528 9000 ft 274 kts 86°
2026-04-28 16:50 28.12726 -14.70372 9000 ft 275 kts 86°
2026-04-28 16:50 28.12866 -14.68238 9000 ft 276 kts 86°
2026-04-28 16:50 28.13009 -14.66073 9000 ft 276 kts 86°
2026-04-28 16:50 28.13153 -14.63899 9000 ft 277 kts 86°
2026-04-28 16:51 28.13294 -14.61723 9000 ft 277 kts 86°
2026-04-28 16:51 28.13435 -14.59546 9000 ft 277 kts 86°
2026-04-28 16:51 28.13576 -14.57369 9000 ft 278 kts 86°
2026-04-28 16:51 28.13718 -14.55190 9000 ft 278 kts 86°
2026-04-28 16:52 28.13862 -14.53007 9000 ft 278 kts 86°
2026-04-28 16:52 28.14004 -14.50854 9000 ft 278 kts 86°
2026-04-28 16:52 28.14209 -14.48677 9000 ft 278 kts 82°
2026-04-28 16:52 28.14529 -14.46522 9000 ft 278 kts 80°
2026-04-28 16:53 28.14881 -14.44371 9000 ft 275 kts 80°
2026-04-28 16:53 28.15221 -14.42270 8936 ft 269 kts 80°
2026-04-28 16:53 28.15531 -14.40200 8690 ft 264 kts 81°
2026-04-28 16:53 28.15833 -14.38133 8129 ft 269 kts 81°
2026-04-28 16:54 28.16135 -14.36042 7968 ft 268 kts 81°
2026-04-28 16:54 28.16433 -14.33974 7586 ft 260 kts 81°
2026-04-28 16:54 28.16726 -14.31930 6825 ft 265 kts 81°
2026-04-28 16:54 28.16923 -14.30572 6491 ft 264 kts 81°
2026-04-28 16:55 28.17310 -14.27871 5865 ft 261 kts 81°
2026-04-28 16:55 28.17601 -14.25855 5393 ft 259 kts 81°
2026-04-28 16:55 28.17888 -14.23841 4968 ft 256 kts 81°
2026-04-28 16:55 28.18171 -14.21873 4674 ft 249 kts 81°
2026-04-28 16:56 28.18444 -14.19956 4416 ft 245 kts 81°
2026-04-28 16:56 28.18716 -14.18064 4153 ft 242 kts 81°
2026-04-28 16:56 28.18980 -14.16196 3887 ft 239 kts 81°
2026-04-28 16:56 28.19252 -14.14298 3617 ft 249 kts 81°
2026-04-28 16:57 28.19523 -14.12382 3480 ft 250 kts 81°
2026-04-28 16:57 28.19806 -14.10413 3380 ft 249 kts 81°
2026-04-28 16:57 28.20070 -14.08525 3195 ft 242 kts 81°
2026-04-28 16:57 28.20340 -14.06617 2629 ft 247 kts 81°
2026-04-28 16:58 28.20607 -14.04756 2624 ft 227 kts 81°
2026-04-28 16:58 28.20846 -14.03075 2688 ft 208 kts 81°
2026-04-28 16:58 28.21070 -14.01500 2714 ft 197 kts 81°
2026-04-28 16:58 28.21281 -13.99998 2734 ft 189 kts 81°
2026-04-28 16:59 28.21487 -13.98545 2736 ft 184 kts 81°
2026-04-28 16:59 28.21687 -13.97125 2742 ft 181 kts 81°
2026-04-28 16:59 28.21886 -13.95722 2747 ft 179 kts 81°
2026-04-28 16:59 28.22081 -13.94337 2749 ft 177 kts 81°
2026-04-28 17:00 28.22273 -13.92980 2750 ft 177 kts 81°
2026-04-28 17:00 28.22467 -13.91607 2750 ft 176 kts 81°
2026-04-28 17:00 28.22660 -13.90241 2750 ft 175 kts 81°
2026-04-28 17:00 28.22849 -13.88899 2749 ft 168 kts 81°
2026-04-28 17:01 28.23035 -13.87615 2746 ft 162 kts 81°
2026-04-28 17:01 28.23489 -13.86461 2455 ft 181 kts 38°
2026-04-28 17:01 28.24529 -13.85695 2502 ft 174 kts 18°
2026-04-28 17:01 28.25714 -13.86083 2312 ft 169 kts 341°
2026-04-28 17:02 28.26770 -13.86148 2754 ft 152 kts 356°
2026-04-28 17:02 28.27497 -13.86273 2738 ft 160 kts 347°
2026-04-28 17:02 28.29020 -13.86648 2703 ft 171 kts 345°
2026-04-28 17:02 28.30148 -13.86886 2970 ft 160 kts 357°
2026-04-28 17:03 28.32465 -13.86804 3029 ft 173 kts
2026-04-28 17:03 28.33701 -13.86778 2968 ft 181 kts
2026-04-28 17:03 28.35009 -13.86711 2677 ft 193 kts
2026-04-28 17:04 28.37597 -13.86628 1884 ft 176 kts
2026-04-28 17:04 28.38702 -13.86582 1657 ft 147 kts
2026-04-28 17:05 28.40742 -13.86530 936 ft 145 kts
2026-04-28 17:05 28.41767 -13.86520 549 ft 145 kts 354°
2026-04-28 17:05 28.42708 -13.86475 376 ft 135 kts
2026-04-28 17:06 28.44544 -13.86400 70 ft 123 kts
2026-04-28 17:06 28.45007 -13.86386 67 ft 20 kts
2026-04-28 17:06 28.45386 -13.86378 78 ft 14 kts 349°
2026-04-28 17:07 28.45409 -13.86448 80 ft 17 kts 269°
2026-04-28 17:07 28.45409 -13.86481 83 ft 0 kts 272°
2026-04-28 17:08 28.45407 -13.86554 92 ft 13 kts 245°
2026-04-28 17:08 28.45371 -13.86656 95 ft 7 kts 271°
2026-04-28 17:08 28.45424 -13.86733 95 ft 17 kts
2026-04-28 17:08 28.45487 -13.86751 97 ft 14 kts 304°
2026-04-28 17:09 28.45488 -13.86776 95 ft 8 kts 256°
2026-04-28 17:09 28.45487 -13.86816 95 ft 0 kts 274°
2026-04-28 17:09 28.45487 -13.86826 95 ft 0 kts 272°